Regional Weather Roundup
Issued by NWS

Home | Current Version | Previous Version | Text Only | Print | Product List | Glossary Off
Versions: 1 2 3 4 5 6 7 8 9 10 11 12 13 14 15 16 17 18 19 20 21 22 23 24 25 26 27 28 29 30 31 32 33 34 35 36 37 38 39 40 41 42 43 44 45 46 47 48 49 50

000
ASUS43 KIND 101059
RWRIN

WEATHER ROUNDUP FOR INDIANA
NATIONAL WEATHER SERVICE INDIANAPOLIS IN
600 AM EST SUN DEC 10 2017

NOTE: "FAIR" INDICATES FEW OR NO CLOUDS BELOW 12,000 FEET WITH NO
SIGNIFICANT WEATHER AND/OR OBSTRUCTIONS TO VISIBILITY.

* - STATION DOES NOT REPORT WEATHER SUCH AS PRECIPITATION OR FOG.

+ - STATION NOT QUALITY CONTROLLED BY THE NATIONAL WEATHER SERVICE.
    USE DATA WITH CAUTION...ESPECIALLY DEWPOINT AND RELATIVE
    HUMIDITY OBSERVATIONS.

INZ001>003-010>013-019-020-101200-
NORTHWEST INDIANA

CITY           SKY/WX    TMP DP  RH WIND       PRES   REMARKS
GARY /AIRPORT/ CLOUDY    23  14  68 SW14      30.00R WCI  11
MONTICELLO +   CLOUDY    19  14  80 S7        30.02F WCI  10

$$

LMZ046-743>745-101200-
SOUTHERN LAKE MICHIGAN

STATION/POSITION TIME  TEMP    WIND        PRES    WAVE
                       AIR SEA DIR/SP/G            HT
                 (UTC) (F)     (DEG/KT/KT) (MB)    (FT)
BURNS HARBOR     1040   20     200/ 10/ 16 1015.6F
MICHIGAN CITY    1030   20     180/ 12/ 15   N/A

$$

INZ004-005-014>016-021>024-101200-
NORTH CENTRAL INDIANA

CITY           SKY/WX    TMP DP  RH WIND       PRES   REMARKS
GOSHEN         CLOUDY    17  12  80 SW9       29.98F WCI   6
SOUTH BEND     CLOUDY    17  13  84 SW8       29.98F WCI   7

$$

INZ006>009-017-018-025>027-101200-
NORTHEAST INDIANA

CITY           SKY/WX    TMP DP  RH WIND       PRES   REMARKS
FORT WAYNE     MOCLDY    19  14  81 SW9       30.02S WCI   8
KENDALLVILLE + CLOUDY    19  14  80 W9        29.98R WCI   8

$$

INZ028-029-035-036-043>045-051>053-101200-
WEST CENTRAL INDIANA

CITY           SKY/WX    TMP DP  RH WIND       PRES   REMARKS
LAFAYETTE      PTCLDY    19  15  84 SW8       30.05F WCI   9
TERRE HAUTE    CLOUDY    22  15  75 SW7       30.12F WCI  13

$$

INZ030>032-037>040-046>048-054>057-064-065-101200-
CENTRAL INDIANA

CITY           SKY/WX    TMP DP  RH WIND       PRES   REMARKS
INDIANAPOLIS   PTCLDY    20  15  81 S8        30.09F WCI  10
-EAGLE CREEK   PTCLDY    20  13  74 SW6       30.08S WCI  12
KOKOMO +       PTCLDY    18  14  84 SW8       30.04F WCI   8
MT COMFORT *+  CLOUDY    19  18  93 SW6       30.09R WCI  11
SHELBYVILLE    CLOUDY    20  14  77 SW7       30.10R WCI  11

$$

INZ033-034-041-042-049-050-058-059-101200-
EAST CENTRAL INDIANA

CITY           SKY/WX    TMP DP  RH WIND       PRES   REMARKS
MUNCIE         PTCLDY    20  14  77 SW7       30.05S WCI  11
RICHMOND +     CLOUDY    18  14  86 SW10      30.07S WCI   6

$$

INZ060-061-067>069-081>083-085>088-101200-
SOUTHWEST INDIANA

CITY           SKY/WX    TMP DP  RH WIND       PRES   REMARKS
EVANSVILLE     PTCLDY    20  16  84 SW5       30.20S WCI  13
HUNTINGBURG +  CLEAR     21  17  84 SW7       30.19R WCI  12

$$

INZ062-063-066-070>080-084-089>092-101200-
SOUTH CENTRAL AND SOUTHEAST INDIANA

CITY           SKY/WX    TMP DP  RH WIND       PRES   REMARKS
BLOOMINGTON    CLEAR     20  13  74 SW6       30.12R WCI  12
SEYMOUR +      MOCLDY    21  14  73 S7        30.15R WCI  13

$$





USA.gov is the U.S. government's official web portal to all federal, state and local government web resources and services.